Fulton, NY

3:29 PM EST on December 06, 2016 (GMT -0500)
Oswego County

Weather History for KFZY - April, 2013

Change the Weather History Date:

Wednesday, April 17, 2013

  Actual Average (KSYR) Record (KSYR)
Temperature  
Mean Temperature 43 °F 48 °F  
Max Temperature 54 °F 58 °F 89 °F (2002)
Min Temperature 33 °F 37 °F 22 °F (1908)
Degree Days  
Heating Degree Days 22 17  
Month to date heating degree days 354  
Since 1 July heating degree days 6142  
Cooling Degree Days 0 0  
Month to date cooling degree days 0  
Year to date cooling degree days 0  
Moisture  
Dew Point 32 °F    
Average Humidity 64    
Maximum Humidity 92    
Minimum Humidity 41    
Precipitation  
Precipitation 0.00 in 0.11 in 0.74 in (1918)
Month to date precipitation 1.89  
Year to date precipitation 9.41  
Snow  
Snow 0.00 in 0.20 in 3.90 in (1965)
Month to date snowfall 3.0  
Since 1 July snowfall 122.9  
Snow Depth -    
Sea Level Pressure  
Sea Level Pressure 30.31 in    
Wind  
Wind Speed 4 mph (NNW)    
Max Wind Speed 12 mph    
Max Gust Speed -    
Visibility 10 miles    
Events      
T = Trace of Precipitation, MM = Missing Value Source: NWS Daily Summary

Daily Weather History Graph

Daily Weather History Graph

Search for Another Location

Airport or City:

Trip Planner

Search our weather history database for the weather conditions in past years. The results will help you decide how hot, cold, wet, or windy it might be!

Date:

Astronomy

Apr. 17, 2013 Rise Set
Actual Time 6:19 AM EDT 7:51 PM EDT
Civil Twilight 5:49 AM EDT 8:21 PM EDT
Nautical Twilight 5:13 AM EDT 8:57 PM EDT
Astronomical Twilight 4:35 AM EDT 9:36 PM EDT
Moon 11:28 AM EDT (4/17) 1:31 AM EDT (4/17)
Length of Visible Light 14h 31m
Length of Day
13h 31m
Waxing Crescent, 42% of the Moon is Illuminated
Apr 17
Waxing Crescent
Apr 18
First Quarter
Apr 25
Full
May 2
Last Quarter
May 9
New

Hourly Weather History & Observations

Time (EDT) Temp. Windchill Dew Point Humidity Pressure Visibility Wind Dir Wind Speed Gust Speed Precip Events Conditions
12:54 AM 42.1 °F 38.4 °F 32.0 °F 67% 30.23 in 10.0 mi WNW 5.8 mph - N/A   Mostly Cloudy
1:54 AM 39.0 °F 34.8 °F 30.9 °F 73% 30.25 in 10.0 mi WNW 5.8 mph - N/A   Clear
2:54 AM 37.9 °F - 30.9 °F 76% 30.25 in 10.0 mi Calm Calm - N/A   Clear
3:54 AM 35.1 °F - 32.0 °F 89% 30.26 in 10.0 mi Calm Calm - N/A   Clear
4:54 AM 33.1 °F - 30.9 °F 92% 30.26 in 10.0 mi Calm Calm - N/A   Clear
5:54 AM 33.1 °F - 30.9 °F 92% 30.29 in 10.0 mi Calm Calm - N/A   Clear
6:54 AM 33.1 °F 30.0 °F 30.9 °F 92% 30.32 in 10.0 mi NW 3.5 mph - N/A   Clear
7:54 AM 39.0 °F - 34.0 °F 82% 30.34 in 10.0 mi Calm Calm - N/A   Clear
8:54 AM 44.1 °F - 34.0 °F 68% 30.34 in 10.0 mi Calm Calm - N/A   Clear
10:54 AM 48.9 °F - 33.1 °F 54% 30.35 in 10.0 mi NNE 6.9 mph - N/A   Clear
11:54 AM 51.1 °F - 33.1 °F 50% 30.34 in 10.0 mi North 5.8 mph - N/A   Clear
12:54 PM 52.0 °F - 32.0 °F 47% 30.35 in 10.0 mi NNW 8.1 mph - N/A   Clear
1:54 PM 53.1 °F - 32.0 °F 45% 30.34 in 10.0 mi NNW 11.5 mph - N/A   Clear
2:54 PM 53.1 °F - 30.9 °F 43% 30.34 in 10.0 mi North 11.5 mph - N/A   Clear
3:54 PM 53.1 °F - 30.0 °F 41% 30.34 in 10.0 mi NNW 8.1 mph - N/A   Clear
4:54 PM 53.1 °F - 30.9 °F 43% 30.33 in 10.0 mi North 9.2 mph - N/A   Clear
5:54 PM 53.1 °F - 33.1 °F 47% 30.33 in 10.0 mi North 10.4 mph - N/A   Clear
6:54 PM 51.1 °F - 30.0 °F 44% 30.31 in 10.0 mi North 8.1 mph - N/A   Clear
7:54 PM 48.0 °F - 30.0 °F 50% 30.32 in 10.0 mi Calm Calm - N/A   Clear
8:54 PM 44.1 °F - 32.0 °F 63% 30.31 in 10.0 mi Calm Calm - N/A   Clear
9:54 PM 41.0 °F - 33.1 °F 73% 30.31 in 10.0 mi Calm Calm - N/A   Clear
10:54 PM 41.0 °F - 33.1 °F 73% 30.29 in 10.0 mi Calm Calm - N/A   Clear
11:54 PM 41.0 °F 39.0 °F 32.0 °F 70% 30.27 in 10.0 mi ENE 3.5 mph - N/A   Clear